Location: Corte Bragagnani
(45.3000°N, 11.1000°E)
Time: 13:21:02
(UTC+00:00)

Cosmos 2333 Rocket - Pass Details

Date: 09 April 2020
Orbit: 841 x 860 km, 70.8° (Epoch: 27 May)

Event Time Altitude Azimuth Distance (km) Brightness Sun altitude
Rises 23:36:29 0° 337° (NNW) 3,407 6.1 -36.5°
Reaches altitude 10° 23:39:01 10° 342° (NNW) 2,469 5.3 -36.4°
Enters shadow 23:42:30 35° 4° (N) 1,331 3.6 -36.4°
